Weather Roundup
Issued by NWS Chicago, IL

Home | Current Version | Previous Version | Graphics & Text | Print | Product List | Glossary On
Versions: 1 2 3 4 5 6 7 8 9 10 11 12 13 14 15 16 17 18 19 20 21 22 23 24 25 26 27 28 29 30 31 32 33 34 35 36 37 38 39 40 41 42 43 44 45 46 47 48 49 50
000
NZUS59 KLOT 301009
HRRLOT

CHICAGO AREA WEATHER ROUNDUP
NATIONAL WEATHER SERVICE CHICAGO/ROMEOVILLE IL
500 AM CDT SAT JUL 30 2016

NOTE: "FAIR" INDICATES FEW OR NO CLOUDS BELOW 12,000 FEET WITH NO
SIGNIFICANT WEATHER AND/OR OBSTRUCTIONS TO VISIBILITY.

* THESE STATIONS ARE NOT UNDER NWS QUALITY CONTROL. THEY ALSO MAY NOT
  REPORT WEATHER SUCH AS PRECIPITATION OR FOG.

ILZ005-006-012>014-019>023-301100-
NORTHEAST ILLINOIS

CITY           SKY/WX    TMP DP  RH WIND       PRES   REMARKS
OHARE          MOCLDY    71  65  81 NE12      29.93R
MIDWAY         CLOUDY    73  67  81 NE9       29.92S
AURORA         PTCLDY    68  65  90 NE6       29.94R
LANSING*       CLEAR     66  65  95 CALM      29.93R FOG
JOLIET*        CLOUDY    70  68  95 CALM      29.92S
WAUKEGAN       PTCLDY    67  64  90 NE9       29.95S
DUPAGE AIRPORT CLEAR     65  63  93 N6        29.93S
WHEELING       CLOUDY    70  64  81 NE8       29.95S
KANKAKEE*      FOG       67  66  97 CALM      29.92S VSB<1/4
MORRIS*        MOCLDY    67  66  96 CALM      29.92S FOG
LEWIS AIRPORT* MOCLDY    68  65  89 NE3       29.92S
NORTHERLY ISL    N/A     72  67  84 MISG        N/A
$$

WIZ051-052-058>065-066-070>072-301100-
SOUTHEAST WISCONSIN

CITY           SKY/WX    TMP DP  RH WIND       PRES   REMARKS
MILWAUKEE      MOCLDY    67  63  87 NE6       29.97S
KENOSHA*       CLOUDY    66  62  87 NE6       29.97S
RACINE*        CLOUDY    67  62  84 E6        29.98S
BURLINGTON     CLOUDY    64  63  97 NE3       29.97S
WAUKESHA       CLOUDY    63  59  88 CALM      30.00S
$$

INZ001>003-010>013-019-020-301100-
NORTHWEST INDIANA

CITY           SKY/WX    TMP DP  RH WIND       PRES   REMARKS
GARY*          PTCLDY    66  66 100 CALM      29.92S
MICHIGAN CITY* NOT AVBL
RENSSELAER*    NOT AVBL
VALPARAISO     CLOUDY    68  67  96 E5        29.93S
$$

LMZ740>746-301100-
SOUTHERN LAKE MICHIGAN

STATION/POSITION TIME  SKY/WX   TEMP WIND        PRES    VSBY
                                AIR  DIR/SP/G
                 (UTC)          (F)  (DEG/KT/KT) (MB)    (MI)
HARRISON CRIB    0900            73   50/  9/ 10   N/A
BURNHAM HARBOR   1000            72   30/  5/  7   N/A
CALUMET HARBOR   0900            71   20/  2/  3 1012.6F
BURNS HARBOR     0906            70  120/  4/ 11 1013.5F
MICHIGAN CITY    0900            68  110/  9/ 10   N/A
$$

ABBREVIATIONS USED IN REMARKS
   TC - TEMPERATURE IN CELSIUS
  WCI - WIND CHILL INDEX
   HX - HEAT INDEX
  VSB - VISIBILITY
$$




USA.gov is the U.S. government's official web portal to all federal, state and local government web resources and services.